Location: Newark
(41.0400°S, 62.7845°W)
Time: 00:10:05
(UTC+00:00)

Vanguard 2 - Pass Details

Date: 08 December 2021
Orbit: 554 x 2935 km, 32.9° (Epoch: 27 January)

Event Time Altitude Azimuth Distance (km) Brightness Sun altitude
Rises 05:51:40 0° 278° (W) 6,765 12.0 -21.4°
Reaches altitude 10° 05:56:13 10° 280° (W) 5,775 11.6 -21.0°
Maximum altitude 06:13:36 63° 354° (N) 2,794 10.0 -19.4°
Drops below altitude 10° 06:26:12 10° 71° (ENE) 4,329 11.5 -18.1°
Sets 06:29:06 0° 74° (ENE) 5,047 12.0 -17.8°
